Regional Weather Roundup
Issued by NWS

Home | Current Version | Previous Version | Text Only | Print | Product List | Glossary Off
Versions: 1 2 3 4 5 6 7 8 9 10 11 12 13 14 15 16 17 18 19 20 21 22 23 24 25 26 27 28 29 30 31 32 33 34 35 36 37 38 39 40 41 42 43 44 45 46 47 48 49 50

000
ASUS43 KIND 230109
RWRIN

WEATHER ROUNDUP FOR INDIANA
NATIONAL WEATHER SERVICE INDIANAPOLIS IN
800 PM EST SAT NOV 22 2014

NOTE: "FAIR" INDICATES FEW OR NO CLOUDS BELOW 12,000 FEET WITH NO
SIGNIFICANT WEATHER AND/OR OBSTRUCTIONS TO VISIBILITY.

* - STATION DOES NOT REPORT WEATHER SUCH AS PRECIPITATION OR FOG.

+ - STATION NOT QUALITY CONTROLLED BY THE NATIONAL WEATHER SERVICE.
    USE DATA WITH CAUTION...ESPECIALLY DEWPOINT AND RELATIVE
    HUMIDITY OBSERVATIONS.

INZ001>003-010>013-019-020-230200-
NORTHWEST INDIANA

CITY           SKY/WX    TMP DP  RH WIND       PRES   REMARKS
GARY /AIRPORT/ CLOUDY    54  45  71 S12       29.90S
KNOX *+        CLOUDY    49  44  82 S9        29.93S
LA PORTE +     CLOUDY    50  47  88 SW9       29.93S
MICHIGAN CITY+ CLOUDY    50  43  76 S12       29.92S
MONTICELLO +   CLOUDY    51  44  77 S8        29.95S
RENSSELAER +   CLOUDY    52  46  82 S12       29.94S
VALPARAISO     CLOUDY    50  45  83 SW10      29.93S

$$

LMZ046-743>745-230200-
SOUTHERN LAKE MICHIGAN

STATION/POSITION TIME  TEMP WIND        PRES
                       AIR  DIR/SP/G
                 (UTC) (F)  (DEG/KT/KT) (MB)
MICHIGAN CITY    0100   52  170/ 18/ 24   N/A

$$

INZ004-005-014>016-021>024-230200-
NORTH CENTRAL INDIANA

CITY           SKY/WX    TMP DP  RH WIND       PRES   REMARKS
GOSHEN         CLOUDY    49  44  83 S13       29.94S
LOGANSPORT +   CLOUDY    46  41  81 S12       29.97S
PERU/GRISSOM   CLOUDY    51  47  85 S15       29.97S
ROCHESTER +    CLOUDY    52  45  76 S9        29.96S
SOUTH BEND     CLOUDY    48  45  89 SW9       29.93F
WARSAW +       CLOUDY    50  43  76 S9        29.95S

$$

INZ006>009-017-018-025>027-230200-
NORTHEAST INDIANA

CITY           SKY/WX    TMP DP  RH WIND       PRES   REMARKS
ANGOLA *+      CLOUDY    48  37  66 SW10      29.95S
AUBURN +       CLOUDY    50  41  71 S8        29.97S
FORT WAYNE     CLOUDY    50  42  74 SW10      29.99R
HUNTINGTON +   CLOUDY    51  42  72 SW8       29.98R

$$

INZ028-029-035-036-043>045-051>053-230200-
WEST CENTRAL INDIANA

CITY           SKY/WX    TMP DP  RH WIND       PRES   REMARKS
GREENCASTLE +  CLOUDY    54  41  62 S8        30.01S
LAFAYETTE      CLOUDY    53  43  68 S7        29.97S
TERRE HAUTE    CLOUDY    55  42  61 S10       30.00S

$$

INZ030>032-037>040-046>048-054>057-064-065-230200-
CENTRAL INDIANA

CITY           SKY/WX    TMP DP  RH WIND       PRES   REMARKS
CP ATTERBURY + MOCLDY    54  37  54 S10       30.05R
FRANKFORT +    CLOUDY    51  43  75 S7        30.01R
INDIANAPOLIS   CLOUDY    54  39  57 S13       30.00S
-EAGLE CREEK   CLOUDY    54  40  59 S7        30.00S
KOKOMO *+      CLOUDY    52  43  71 SW14      29.99R
MARION +       CLOUDY    50  40  68 S12G18    30.00R
MT COMFORT *+  CLOUDY    52  32  46 S8        30.02S
SHELBYVILLE    CLOUDY    54  38  54 S14       30.03S
ZIONSVILLE +   CLOUDY    55  39  55 S10G17    30.01R

$$

INZ033-034-041-042-049-050-058-059-230200-
EAST CENTRAL INDIANA

CITY           SKY/WX    TMP DP  RH WIND       PRES   REMARKS
MUNCIE         CLOUDY    53  41  63 S10       30.01S

$$

INZ060-061-067>069-081>083-085>088-230200-
SOUTHWEST INDIANA

CITY           SKY/WX    TMP DP  RH WIND       PRES   REMARKS
EVANSVILLE     MOCLDY    57  37  47 S7        30.04S
HUNTINGBURG *+ MOCLDY    55  36  47 S8        30.05S
WASHINGTON +   PTCLDY    51  42  71 S9        30.02F

$$

INZ062-063-066-070>080-084-089>092-230200-
SOUTH CENTRAL AND SOUTHEAST INDIANA

CITY           SKY/WX    TMP DP  RH WIND       PRES   REMARKS
BLOOMINGTON    CLOUDY    55  40  56 S10       30.03S

$$



USA.gov is the U.S. government's official web portal to all federal, state and local government web resources and services.